When you browse on this site, cookies collect data to enhance your experience and personalize the content and advertising you see.
Visit our Privacy Policy to learn more. By continuing to use the site, you agree to this use of cookies and data.
  • In France
  • List of Countries
  • For 7 days
  • Water Temperature
  • Weather Map
  • Weather Widgets
  • user-avatar
    Login

    Hourly Weather Livingstone

    Today, 21 August, Wednesday

    Time Temperature Precipitation Wind Pressure Humidity
    00:00 +16°C° 0 mm 2 mps 687 mmHg 40%
    01:00 +16°C° 0 mm 3 mps 687 mmHg 46%
    02:00 +16°C° 0 mm 3 mps 688 mmHg 52%
    03:00 +14°C° 0 mm 3 mps 688 mmHg 58%
    04:00 +14°C° 0 mm 3 mps 688 mmHg 65%
    05:00 +14°C° 0 mm 3 mps 688 mmHg 71%
    06:00 +15°C° 0 mm 4 mps 689 mmHg 68%
    07:00 +17°C° 0 mm 4 mps 689 mmHg 66%
    08:00 +17°C° 0 mm 5 mps 690 mmHg 63%
    09:00 +20°C° 0 mm 5 mps 690 mmHg 55%
    10:00 +22°C° 0 mm 5 mps 691 mmHg 46%
    11:00 +26°C° 0 mm 5 mps 691 mmHg 37%
    12:00 +27°C° 0 mm 5 mps 690 mmHg 33%
    13:00 +28°C° 0 mm 5 mps 689 mmHg 29%
    14:00 +29°C° 0 mm 5 mps 688 mmHg 25%
    15:00 +28°C° 0 mm 4 mps 688 mmHg 26%
    16:00 +28°C° 0 mm 4 mps 687 mmHg 27%
    17:00 +27°C° 0 mm 4 mps 687 mmHg 27%
    18:00 +25°C° 0 mm 3 mps 687 mmHg 33%
    19:00 +21°C° 0 mm 2 mps 687 mmHg 40%
    20:00 +19°C° 0 mm 1 mps 686 mmHg 46%
    21:00 +19°C° 0 mm 1 mps 687 mmHg 48%
    22:00 +18°C° 0 mm 1 mps 687 mmHg 51%
    23:00 +16°C° 0 mm 1 mps 687 mmHg 53%

    Tomorrow, 22 August, Thursday

    Time Temperature Precipitation Wind Pressure Humidity
    00:00 +16°C° 0 mm 1 mps 687 mmHg 54%
    01:00 +15°C° 0 mm 2 mps 687 mmHg 54%
    02:00 +15°C° 0 mm 2 mps 687 mmHg 55%
    03:00 +13°C° 0 mm 3 mps 687 mmHg 56%
    04:00 +12°C° 0 mm 3 mps 687 mmHg 58%
    05:00 +11°C° 0 mm 3 mps 687 mmHg 59%
    06:00 +12°C° 0 mm 3 mps 688 mmHg 58%
    07:00 +13°C° 0 mm 3 mps 688 mmHg 57%
    08:00 +13°C° 0 mm 4 mps 689 mmHg 56%
    09:00 +17°C° 0 mm 3 mps 689 mmHg 49%
    10:00 +20°C° 0 mm 3 mps 690 mmHg 42%
    11:00 +24°C° 0 mm 3 mps 690 mmHg 35%
    12:00 +26°C° 0 mm 3 mps 689 mmHg 31%
    13:00 +27°C° 0 mm 4 mps 688 mmHg 26%
    14:00 +28°C° 0 mm 4 mps 687 mmHg 21%
    15:00 +28°C° 0 mm 4 mps 687 mmHg 21%
    16:00 +27°C° 0 mm 4 mps 687 mmHg 21%
    17:00 +27°C° 0 mm 4 mps 686 mmHg 21%
    18:00 +24°C° 0 mm 3 mps 686 mmHg 27%
    19:00 +20°C° 0 mm 2 mps 686 mmHg 32%
    20:00 +18°C° 0 mm 1 mps 686 mmHg 38%
    21:00 +16°C° 0 mm 1 mps 686 mmHg 41%
    22:00 +15°C° 0 mm 1 mps 686 mmHg 44%
    23:00 +13°C° 0 mm 0 mps 686 mmHg 46%

    Day after tomorrow, 23 August, Friday

    Time Temperature Precipitation Wind Pressure Humidity
    00:00 +14°C° 0 mm 1 mps 686 mmHg 48%
    01:00 +13°C° 0 mm 1 mps 686 mmHg 49%
    02:00 +13°C° 0 mm 1 mps 686 mmHg 51%
    03:00 +12°C° 0 mm 2 mps 686 mmHg 51%
    04:00 +10°C° 0 mm 2 mps 686 mmHg 51%
    05:00 +10°C° 0 mm 2 mps 686 mmHg 51%
    06:00 +12°C° 0 mm 2 mps 687 mmHg 47%
    07:00 +14°C° 0 mm 2 mps 688 mmHg 44%
    08:00 +15°C° 0 mm 2 mps 689 mmHg 40%
    09:00 +19°C° 0 mm 2 mps 689 mmHg 34%
    10:00 +22°C° 0 mm 3 mps 689 mmHg 27%
    11:00 +26°C° 0 mm 3 mps 690 mmHg 21%
    12:00 +27°C° 0 mm 4 mps 689 mmHg 18%
    13:00 +28°C° 0 mm 4 mps 688 mmHg 15%
    14:00 +30°C° 0 mm 5 mps 688 mmHg 12%
    15:00 +29°C° 0 mm 4 mps 687 mmHg 12%
    16:00 +29°C° 0 mm 4 mps 687 mmHg 13%
    17:00 +28°C° 0 mm 3 mps 686 mmHg 14%
    18:00 +25°C° 0 mm 2 mps 686 mmHg 18%
    19:00 +21°C° 0 mm 2 mps 686 mmHg 22%
    20:00 +19°C° 0 mm 1 mps 686 mmHg 27%
    21:00 +18°C° 0 mm 1 mps 686 mmHg 29%
    22:00 +15°C° 0 mm 1 mps 686 mmHg 31%
    23:00 +14°C° 0 mm 1 mps 686 mmHg 33%

    24 August, Saturday

    Time Temperature Precipitation Wind Pressure Humidity
    00:00 +14°C° 0 mm 1 mps 686 mmHg 34%
    01:00 +13°C° 0 mm 1 mps 686 mmHg 35%
    02:00 +13°C° 0 mm 2 mps 686 mmHg 36%
    03:00 +12°C° 0 mm 2 mps 686 mmHg 35%
    04:00 +12°C° 0 mm 2 mps 686 mmHg 35%
    05:00 +10°C° 0 mm 2 mps 686 mmHg 35%
    06:00 +13°C° 0 mm 2 mps 687 mmHg 34%
    07:00 +13°C° 0 mm 3 mps 687 mmHg 32%
    08:00 +16°C° 0 mm 3 mps 688 mmHg 31%
    09:00 +19°C° 0 mm 3 mps 689 mmHg 27%
    10:00 +24°C° 0 mm 3 mps 689 mmHg 23%
    11:00 +27°C° 0 mm 4 mps 690 mmHg 20%
    12:00 +28°C° 0 mm 4 mps 689 mmHg 17%
    13:00 +29°C° 0 mm 4 mps 688 mmHg 15%
    14:00 +30°C° 0 mm 5 mps 687 mmHg 13%
    15:00 +29°C° 0 mm 4 mps 687 mmHg 14%
    16:00 +29°C° 0 mm 4 mps 686 mmHg 14%
    17:00 +29°C° 0 mm 3 mps 686 mmHg 15%
    18:00 +25°C° 0 mm 3 mps 686 mmHg 19%
    19:00 +21°C° 0 mm 2 mps 685 mmHg 23%
    20:00 +19°C° 0 mm 1 mps 685 mmHg 27%
    21:00 +18°C° 0 mm 1 mps 685 mmHg 29%
    22:00 +16°C° 0 mm 1 mps 685 mmHg 31%
    23:00 +15°C° 0 mm 1 mps 685 mmHg 33%

    25 August, Sunday

    Time Temperature Precipitation Wind Pressure Humidity
    00:00 +14°C° 0 mm 1 mps 685 mmHg 35%
    01:00 +14°C° 0 mm 1 mps 685 mmHg 36%
    02:00 +13°C° 0 mm 1 mps 685 mmHg 37%
    03:00 +12°C° 0 mm 1 mps 685 mmHg 38%
    04:00 +12°C° 0 mm 1 mps 685 mmHg 38%
    05:00 +11°C° 0 mm 1 mps 685 mmHg 39%
    06:00 +13°C° 0 mm 1 mps 686 mmHg 36%
    07:00 +15°C° 0 mm 2 mps 686 mmHg 33%
    08:00 +16°C° 0 mm 2 mps 687 mmHg 30%
    09:00 +20°C° 0 mm 2 mps 688 mmHg 27%
    10:00 +25°C° 0 mm 3 mps 688 mmHg 23%
    11:00 +28°C° 0 mm 3 mps 688 mmHg 20%
    12:00 +29°C° 0 mm 3 mps 688 mmHg 18%
    13:00 +30°C° 0 mm 4 mps 687 mmHg 16%
    14:00 +33°C° 0 mm 4 mps 686 mmHg 14%
    15:00 +32°C° 0 mm 4 mps 686 mmHg 15%
    16:00 +30°C° 0 mm 4 mps 685 mmHg 16%
    17:00 +30°C° 0 mm 4 mps 685 mmHg 17%
    18:00 +27°C° 0 mm 3 mps 685 mmHg 21%
    19:00 +24°C° 0 mm 3 mps 685 mmHg 25%
    20:00 +20°C° 0 mm 2 mps 685 mmHg 29%
    21:00 +19°C° 0 mm 2 mps 684 mmHg 30%
    22:00 +19°C° 0 mm 1 mps 684 mmHg 32%
    23:00 +18°C° 0 mm 1 mps 684 mmHg 33%

    26 August, Monday

    Time Temperature Precipitation Wind Pressure Humidity
    00:00 +16°C° 0 mm 1 mps 684 mmHg 34%
    01:00 +16°C° 0 mm 1 mps 684 mmHg 35%
    02:00 +16°C° 0 mm 1 mps 684 mmHg 36%
    03:00 +15°C° 0 mm 1 mps 684 mmHg 39%
    04:00 +14°C° 0 mm 1 mps 684 mmHg 41%
    05:00 +13°C° 0 mm 1 mps 684 mmHg 44%
    06:00 +15°C° 0 mm 1 mps 685 mmHg 40%
    07:00 +18°C° 0 mm 1 mps 686 mmHg 36%
    08:00 +20°C° 0 mm 1 mps 687 mmHg 32%
    09:00 +23°C° 0 mm 2 mps 687 mmHg 28%
    10:00 +27°C° 0 mm 2 mps 687 mmHg 24%
    11:00 +30°C° 0 mm 3 mps 688 mmHg 19%
    12:00 +34°C° 0 mm 2 mps 687 mmHg 16%
    13:00 +35°C° 0 mm 1 mps 687 mmHg 14%
    14:00 +39°C° 0 mm 1 mps 686 mmHg 11%
    15:00 +36°C° 0 mm 1 mps 686 mmHg 11%
    16:00 +35°C° 0 mm 1 mps 685 mmHg 12%
    17:00 +34°C° 0 mm 1 mps 684 mmHg 13%
    18:00 +30°C° 0 mm 2 mps 684 mmHg 18%
    19:00 +27°C° 0 mm 2 mps 684 mmHg 24%
    20:00 +24°C° 0 mm 2 mps 684 mmHg 30%
    21:00 +23°C° 0 mm 2 mps 684 mmHg 32%
    22:00 +22°C° 0 mm 1 mps 684 mmHg 34%
    23:00 +21°C° 0 mm 1 mps 684 mmHg 36%
    Show more